JA1KWV-11 Weather Reports


time (UTC)temp
C
wind
direction
speed
KPH
gust
KPH
rain 1hr
cm
rain 24hr
cm
rain mn
cm
humidity
%
barometer
mb
20260505093324 24 267 0.0 0.0 0.00 0.00 0.00 57 1020.6
20260505092524 24 267 0.0 0.0 0.00 0.00 0.00 56 1020.6
20260505091724 24 267 0.0 0.0 0.00 0.00 0.00 57 1020.4
20260505090924 24 267 0.0 0.0 0.00 0.00 0.00 57 1020.5
20260505090123 24 267 0.0 0.0 0.00 0.00 0.00 57 1020.3
20260505085323 24 267 0.0 0.0 0.00 0.00 0.00 56 1020.1
20260505084523 24 267 0.0 0.0 0.00 0.00 0.00 56 1020.0
20260505083723 24 267 0.0 0.0 0.00 0.00 0.00 56 1020.1
20260505082922 24 267 0.0 0.0 0.00 0.00 0.00 56 1019.9
20260505082122 24 267 0.0 0.0 0.00 0.00 0.00 54 1019.8
20260505081322 24 267 0.0 0.0 0.00 0.00 0.00 55 1019.9
20260505080522 23 267 0.0 0.0 0.00 0.00 0.00 55 1019.6
20260505075722 24 267 0.0 0.0 0.00 0.00 0.00 56 1019.9
20260505074921 24 267 0.0 0.0 0.00 0.00 0.00 55 1019.8
20260505074121 23 267 0.0 0.0 0.00 0.00 0.00 56 1019.5
20260505073321 23 267 0.0 0.0 0.00 0.00 0.00 55 1019.3
20260505072521 23 267 0.0 0.0 0.00 0.00 0.00 54 1019.1
20260505071721 23 267 0.0 0.0 0.00 0.00 0.00 55 1019.2
20260505070921 23 267 0.0 0.0 0.00 0.00 0.00 55 1019.1
20260505070120 23 267 0.0 0.0 0.00 0.00 0.00 54 1018.8
20260505065320 23 267 0.0 0.0 0.00 0.00 0.00 54 1019.1
20260505064520 23 267 0.0 0.0 0.00 0.00 0.00 54 1019.0
20260505063719 23 267 0.0 0.0 0.00 0.00 0.00 54 1019.0
20260505062919 23 267 0.0 0.0 0.00 0.00 0.00 54 1018.8
20260505062119 23 267 0.0 0.0 0.00 0.00 0.00 54 1018.8
20260505061319 23 267 0.0 0.0 0.00 0.00 0.00 54 1018.8
20260505060519 23 267 0.0 0.0 0.00 0.00 0.00 55 1018.8
20260505055718 23 267 0.0 0.0 0.00 0.00 0.00 55 1018.6
20260505054918 23 267 0.0 0.0 0.00 0.00 0.00 56 1018.9
20260505054118 23 267 0.0 0.0 0.00 0.00 0.00 54 1018.6
20260505053318 23 267 0.0 0.0 0.00 0.00 0.00 55 1018.5
20260505052517 23 267 0.0 0.0 0.00 0.00 0.00 55 1018.3
20260505051717 23 267 0.0 0.0 0.00 0.00 0.00 55 1018.4
20260505050917 23 267 0.0 0.0 0.00 0.00 0.00 54 1018.6
20260505050117 23 267 0.0 0.0 0.00 0.00 0.00 54 1018.8
20260505041315 23 267 0.0 0.0 0.00 0.00 0.00 54 1019.0
20260505040515 23 267 0.0 0.0 0.00 0.00 0.00 55 1019.2
20260505035715 23 267 0.0 0.0 0.00 0.00 0.00 55 1019.1
20260505034915 23 267 0.0 0.0 0.00 0.00 0.00 54 1019.0
20260505034115 23 267 0.0 0.0 0.00 0.00 0.00 54 1019.1
20260505033314 23 267 0.0 0.0 0.00 0.00 0.00 55 1018.8
20260505032514 23 267 0.0 0.0 0.00 0.00 0.00 54 1019.2
20260505031714 23 267 0.0 0.0 0.00 0.00 0.00 54 1019.1
20260505030914 23 267 0.0 0.0 0.00 0.00 0.00 55 1019.2
20260505030113 23 267 0.0 0.0 0.00 0.00 0.00 55 1019.3
20260505025313 23 267 0.0 0.0 0.00 0.00 0.00 56 1019.1
20260505024513 23 267 0.0 0.0 0.00 0.00 0.00 55 1019.2
20260505023713 23 267 0.0 0.0 0.00 0.00 0.00 55 1019.3
20260505022913 23 267 0.0 0.0 0.00 0.00 0.00 55 1019.2
20260505022112 23 267 0.0 0.0 0.00 0.00 0.00 56 1019.5
20260505021312 23 267 0.0 0.0 0.00 0.00 0.00 55 1019.4
20260505020512 24 267 0.0 0.0 0.00 0.00 0.00 56 1019.6
20260505015712 24 267 0.0 0.0 0.00 0.00 0.00 55 1019.6
20260505014911 24 267 0.0 0.0 0.00 0.00 0.00 56 1019.2
20260505014111 24 267 0.0 0.0 0.00 0.00 0.00 56 1019.4
20260505013311 24 267 0.0 0.0 0.00 0.00 0.00 57 1019.4
20260505012511 24 267 0.0 0.0 0.00 0.00 0.00 57 1019.3
20260505011711 24 267 0.0 0.0 0.00 0.00 0.00 58 1019.2
20260505010910 24 267 0.0 0.0 0.00 0.00 0.00 59 1019.3
20260505010110 24 267 0.0 0.0 0.00 0.00 0.00 59 1019.4
20260505005310 24 267 0.0 0.0 0.00 0.00 0.00 59 1019.2
20260505004510 24 267 0.0 0.0 0.00 0.00 0.00 62 1019.5
20260505003710 24 267 0.0 0.0 0.00 0.00 0.00 63 1019.2
20260505002909 24 267 0.0 0.0 0.00 0.00 0.00 63 1019.6
20260505002109 24 267 0.0 0.0 0.00 0.00 0.00 64 1019.1
20260505001309 24 267 0.0 0.0 0.00 0.00 0.00 64 1019.3
20260505000509 24 267 0.0 0.0 0.00 0.00 0.00 66 1019.4
20260504235708 24 267 0.0 0.0 0.00 0.00 0.00 66 1019.3
20260504234908 24 267 0.0 0.0 0.00 0.00 0.00 66 1019.1
20260504234108 24 267 0.0 0.0 0.00 0.00 0.00 67 1019.1
20260504233308 24 267 0.0 0.0 0.00 0.00 0.00 67 1019.2
20260504232508 24 267 0.0 0.0 0.00 0.00 0.00 66 1019.3
20260504231707 24 267 0.0 0.0 0.00 0.00 0.00 66 1019.4
20260504230907 24 267 0.0 0.0 0.00 0.00 0.00 66 1019.3
20260504230107 23 267 0.0 0.0 0.00 0.00 0.00 65 1019.3
20260504225307 23 267 0.0 0.0 0.00 0.00 0.00 66 1019.1
20260504224506 23 267 0.0 0.0 0.00 0.00 0.00 66 1019.0
20260504223706 23 267 0.0 0.0 0.00 0.00 0.00 66 1019.1
20260504222906 23 267 0.0 0.0 0.00 0.00 0.00 66 1018.9
20260504222106 23 267 0.0 0.0 0.00 0.00 0.00 65 1018.9
20260504221306 23 267 0.0 0.0 0.00 0.00 0.00 65 1019.1
20260504220505 23 267 0.0 0.0 0.00 0.00 0.00 64 1018.8
20260504215705 23 267 0.0 0.0 0.00 0.00 0.00 64 1018.6
20260504214905 23 267 0.0 0.0 0.00 0.00 0.00 64 1018.6
20260504214105 23 267 0.0 0.0 0.00 0.00 0.00 63 1018.4
20260504213304 23 267 0.0 0.0 0.00 0.00 0.00 63 1018.5
20260504212504 23 267 0.0 0.0 0.00 0.00 0.00 63 1018.3
20260504211704 23 267 0.0 0.0 0.00 0.00 0.00 63 1018.1
20260504210904 23 267 0.0 0.0 0.00 0.00 0.00 63 1017.9
20260504210104 23 267 0.0 0.0 0.00 0.00 0.00 63 1017.9
20260504205304 23 267 0.0 0.0 0.00 0.00 0.00 63 1017.5
20260504204503 23 267 0.0 0.0 0.00 0.00 0.00 63 1017.2
20260504203703 23 267 0.0 0.0 0.00 0.00 0.00 63 1017.1
20260504202903 23 267 0.0 0.0 0.00 0.00 0.00 63 1016.6
20260504202103 23 267 0.0 0.0 0.00 0.00 0.00 63 1016.6
20260504201302 23 267 0.0 0.0 0.00 0.00 0.00 62 1016.4
20260504200502 23 267 0.0 0.0 0.00 0.00 0.00 62 1016.1
20260504195702 23 267 0.0 0.0 0.00 0.00 0.00 62 1015.9
20260504194902 23 267 0.0 0.0 0.00 0.00 0.00 62 1015.8
20260504194101 23 267 0.0 0.0 0.00 0.00 0.00 62 1015.9
20260504193301 23 267 0.0 0.0 0.00 0.00 0.00 62 1015.1
20260504192501 23 267 0.0 0.0 0.00 0.00 0.00 62 1014.9
20260504191701 23 267 0.0 0.0 0.00 0.00 0.00 63 1015.0
20260504190901 23 267 0.0 0.0 0.00 0.00 0.00 63 1014.8
20260504190100 23 267 0.0 0.0 0.00 0.00 0.00 62 1014.4
20260504185300 23 267 0.0 0.0 0.00 0.00 0.00 62 1014.4
20260504184500 23 267 0.0 0.0 0.00 0.00 0.00 63 1014.5
20260504183700 23 267 0.0 0.0 0.00 0.00 0.00 63 1014.1
20260504182859 23 267 0.0 0.0 0.00 0.00 0.00 63 1014.1
20260504182059 23 267 0.0 0.0 0.00 0.00 0.00 63 1014.2
20260504181259 23 267 0.0 0.0 0.00 0.00 0.00 63 1013.8
20260504180459 23 267 0.0 0.0 0.00 0.00 0.00 63 1013.7
20260504175659 23 267 0.0 0.0 0.00 0.00 0.00 63 1013.4
20260504174858 23 267 0.0 0.0 0.00 0.00 0.00 62 1013.1
20260504174058 23 267 0.0 0.0 0.00 0.00 0.00 63 1012.8
20260504173258 23 267 0.0 0.0 0.00 0.00 0.00 62 1012.8
20260504172458 23 267 0.0 0.0 0.00 0.00 0.00 63 1012.5
20260504171657 23 267 0.0 0.0 0.00 0.00 0.00 62 1012.5
20260504170857 23 267 0.0 0.0 0.00 0.00 0.00 63 1012.3
20260504150854 24 267 0.0 0.0 0.00 0.00 0.00 63 1009.6
20260504141252 24 267 0.0 0.0 0.00 0.00 0.00 63 1007.6
20260504140452 24 267 0.0 0.0 0.00 0.00 0.00 62 1007.6
20260504100446 25 267 0.0 0.0 0.00 0.00 0.00 66 1000.5